When you browse on this site, cookies collect data to enhance your experience and personalize the content and advertising you see.
Visit our Privacy Policy to learn more. By continuing to use the site, you agree to this use of cookies and data.
  • In United Kingdom
  • List of Countries
  • For 7 days
  • Water Temperature
  • Satellite Maps
  • Weather Map
  • Weather Widgets
  • user-avatar
    Login

    Hourly Weather Canberra

    Today, 13 December, Thursday

    Time Temperature Precipitation Wind Pressure Humidity
    00:00 +17°C° 0.1 mm 2 mps 703 mmHg 92%
    01:00 +17°C° 0.1 mm 2 mps 703 mmHg 92%
    02:00 +17°C° 0.7 mm 2 mps 702 mmHg 93%
    03:00 +17°C° 0.7 mm 2 mps 702 mmHg 94%
    04:00 +17°C° 0 mm 2 mps 701 mmHg 96%
    05:00 +17°C° 0.7 mm 2 mps 701 mmHg 94%
    06:00 +18°C° 0.7 mm 3 mps 701 mmHg 92%
    07:00 +19°C° 0.7 mm 3 mps 700 mmHg 90%
    08:00 +20°C° 0.6 mm 3 mps 700 mmHg 84%
    09:00 +22°C° 0.6 mm 4 mps 700 mmHg 77%
    10:00 +21°C° 0 mm 3 mps 700 mmHg 84%
    11:00 +22°C° 1 mm 3 mps 700 mmHg 81%
    12:00 +22°C° 1 mm 3 mps 699 mmHg 79%
    13:00 +24°C° 1 mm 3 mps 699 mmHg 76%
    14:00 +25°C° 1 mm 3 mps 699 mmHg 71%
    15:00 +26°C° 1 mm 2 mps 698 mmHg 65%
    16:00 +27°C° 1 mm 2 mps 698 mmHg 60%
    17:00 +25°C° 9.8 mm 2 mps 698 mmHg 71%
    18:00 +23°C° 9.8 mm 2 mps 697 mmHg 81%
    19:00 +19°C° 9.8 mm 3 mps 697 mmHg 92%
    20:00 +19°C° 3.6 mm 3 mps 697 mmHg 93%
    21:00 +18°C° 3.6 mm 3 mps 698 mmHg 93%
    22:00 +18°C° 3.6 mm 3 mps 698 mmHg 94%
    23:00 +18°C° 1.4 mm 2 mps 698 mmHg 95%

    Tomorrow, 14 December, Friday

    Time Temperature Precipitation Wind Pressure Humidity
    00:00 +17°C° 1.4 mm 2 mps 698 mmHg 96%
    01:00 +17°C° 1.4 mm 2 mps 698 mmHg 97%
    02:00 +17°C° 1.1 mm 2 mps 698 mmHg 97%
    03:00 +17°C° 1.1 mm 2 mps 698 mmHg 96%
    04:00 +17°C° 1.1 mm 2 mps 698 mmHg 96%
    05:00 +17°C° 0.1 mm 2 mps 698 mmHg 94%
    06:00 +17°C° 0.1 mm 2 mps 699 mmHg 92%
    07:00 +17°C° 0.1 mm 2 mps 699 mmHg 90%
    08:00 +18°C° 0.1 mm 1 mps 700 mmHg 87%
    09:00 +19°C° 0.1 mm 1 mps 700 mmHg 84%
    10:00 +19°C° 0.1 mm 1 mps 701 mmHg 82%
    11:00 +20°C° 0.1 mm 1 mps 701 mmHg 77%
    12:00 +21°C° 0.1 mm 1 mps 701 mmHg 72%
    13:00 +22°C° 0.1 mm 1 mps 701 mmHg 67%
    14:00 +21°C° 0.9 mm 2 mps 701 mmHg 71%
    15:00 +21°C° 0.9 mm 2 mps 701 mmHg 74%
    16:00 +23°C° 0.9 mm 2 mps 701 mmHg 78%
    17:00 +21°C° 1.6 mm 2 mps 701 mmHg 82%
    18:00 +20°C° 1.6 mm 2 mps 701 mmHg 85%
    19:00 +19°C° 1.6 mm 3 mps 701 mmHg 89%
    20:00 +19°C° 0.9 mm 2 mps 701 mmHg 92%
    21:00 +18°C° 0.9 mm 2 mps 702 mmHg 94%
    22:00 +18°C° 0.9 mm 1 mps 702 mmHg 96%
    23:00 +18°C° 0.4 mm 1 mps 702 mmHg 97%

    Day after tomorrow, 15 December, Saturday

    Time Temperature Precipitation Wind Pressure Humidity
    00:00 +18°C° 0.4 mm 1 mps 702 mmHg 97%
    01:00 +18°C° 0.4 mm 1 mps 702 mmHg 97%
    02:00 +18°C° 0.2 mm 1 mps 702 mmHg 97%
    03:00 +16°C° 0.2 mm 1 mps 702 mmHg 97%
    04:00 +16°C° 0.2 mm 1 mps 702 mmHg 97%
    05:00 +18°C° 0 mm 1 mps 702 mmHg 93%
    06:00 +20°C° 0 mm 1 mps 703 mmHg 89%
    07:00 +21°C° 0 mm 1 mps 703 mmHg 85%
    08:00 +23°C° 0.3 mm 2 mps 703 mmHg 78%
    09:00 +24°C° 0.3 mm 3 mps 704 mmHg 71%
    10:00 +26°C° 0.3 mm 4 mps 704 mmHg 64%
    11:00 +25°C° 2.1 mm 4 mps 703 mmHg 70%
    12:00 +23°C° 2.1 mm 5 mps 703 mmHg 75%
    13:00 +23°C° 2.1 mm 5 mps 702 mmHg 81%
    14:00 +23°C° 2 mm 5 mps 702 mmHg 82%
    15:00 +23°C° 2 mm 5 mps 701 mmHg 84%
    16:00 +22°C° 2 mm 5 mps 701 mmHg 85%
    17:00 +22°C° 3 mm 5 mps 701 mmHg 86%
    18:00 +21°C° 3 mm 5 mps 701 mmHg 87%
    19:00 +21°C° 3 mm 4 mps 701 mmHg 88%
    20:00 +20°C° 1.6 mm 4 mps 702 mmHg 89%
    21:00 +20°C° 1.6 mm 4 mps 702 mmHg 91%
    22:00 +19°C° 1.6 mm 3 mps 702 mmHg 92%
    23:00 +19°C° 0.1 mm 3 mps 702 mmHg 93%

    16 December, Sunday

    Time Temperature Precipitation Wind Pressure Humidity
    00:00 +18°C° 0.1 mm 2 mps 702 mmHg 95%
    01:00 +19°C° 0.1 mm 1 mps 702 mmHg 96%
    02:00 +18°C° 0 mm 1 mps 702 mmHg 96%
    03:00 +18°C° 0 mm 1 mps 702 mmHg 96%
    04:00 +16°C° 0 mm 1 mps 702 mmHg 96%
    05:00 +18°C° 0 mm 1 mps 703 mmHg 90%
    06:00 +19°C° 0 mm 1 mps 703 mmHg 84%
    07:00 +21°C° 0 mm 1 mps 704 mmHg 78%
    08:00 +22°C° 0 mm 3 mps 704 mmHg 66%
    09:00 +25°C° 0 mm 4 mps 704 mmHg 53%
    10:00 +27°C° 0 mm 5 mps 704 mmHg 41%
    11:00 +28°C° 0 mm 6 mps 704 mmHg 39%
    12:00 +28°C° 0 mm 6 mps 704 mmHg 37%
    13:00 +29°C° 0 mm 6 mps 704 mmHg 35%
    14:00 +29°C° 0 mm 6 mps 703 mmHg 35%
    15:00 +29°C° 0 mm 5 mps 703 mmHg 35%
    16:00 +28°C° 0 mm 5 mps 703 mmHg 35%
    17:00 +26°C° 0 mm 4 mps 703 mmHg 42%
    18:00 +24°C° 0 mm 3 mps 703 mmHg 49%
    19:00 +21°C° 0 mm 2 mps 703 mmHg 56%
    20:00 +20°C° 0 mm 2 mps 703 mmHg 58%
    21:00 +19°C° 0 mm 2 mps 704 mmHg 61%
    22:00 +18°C° 0 mm 2 mps 704 mmHg 63%
    23:00 +18°C° 0 mm 1 mps 704 mmHg 64%

    17 December, Monday

    Time Temperature Precipitation Wind Pressure Humidity
    00:00 +18°C° 0 mm 1 mps 704 mmHg 65%
    01:00 +16°C° 0 mm 1 mps 704 mmHg 66%
    02:00 +16°C° 0 mm 1 mps 704 mmHg 67%
    03:00 +16°C° 0 mm 1 mps 704 mmHg 67%
    04:00 +15°C° 0 mm 1 mps 704 mmHg 68%
    05:00 +18°C° 0 mm 1 mps 704 mmHg 64%
    06:00 +20°C° 0 mm 1 mps 705 mmHg 60%
    07:00 +21°C° 0 mm 1 mps 706 mmHg 56%
    08:00 +23°C° 0 mm 2 mps 706 mmHg 50%
    09:00 +25°C° 0 mm 3 mps 706 mmHg 45%
    10:00 +27°C° 0 mm 4 mps 706 mmHg 39%
    11:00 +28°C° 0 mm 4 mps 706 mmHg 38%
    12:00 +29°C° 0 mm 4 mps 706 mmHg 36%
    13:00 +30°C° 0 mm 4 mps 706 mmHg 35%
    14:00 +30°C° 0 mm 4 mps 706 mmHg 35%
    15:00 +30°C° 0 mm 4 mps 705 mmHg 35%
    16:00 +30°C° 0 mm 3 mps 705 mmHg 35%
    17:00 +28°C° 0 mm 3 mps 706 mmHg 42%
    18:00 +26°C° 0 mm 2 mps 706 mmHg 50%
    19:00 +24°C° 0 mm 1 mps 706 mmHg 57%
    20:00 +22°C° 0 mm 1 mps 706 mmHg 62%
    21:00 +21°C° 0 mm 1 mps 707 mmHg 68%
    22:00 +20°C° 0 mm 1 mps 707 mmHg 73%
    23:00 +19°C° 0 mm 1 mps 707 mmHg 77%

    18 December, Tuesday

    Time Temperature Precipitation Wind Pressure Humidity
    00:00 +18°C° 0 mm 1 mps 707 mmHg 81%
    01:00 +18°C° 0 mm 1 mps 707 mmHg 85%
    02:00 +16°C° 0 mm 1 mps 707 mmHg 87%
    03:00 +16°C° 0 mm 1 mps 707 mmHg 89%
    04:00 +16°C° 0 mm 1 mps 707 mmHg 91%
    05:00 +18°C° 0 mm 1 mps 707 mmHg 85%
    06:00 +20°C° 0 mm 1 mps 708 mmHg 79%
    07:00 +21°C° 0 mm 1 mps 708 mmHg 73%
    08:00 +23°C° 0 mm 1 mps 709 mmHg 65%
    09:00 +26°C° 0 mm 1 mps 709 mmHg 58%
    10:00 +28°C° 0 mm 2 mps 709 mmHg 50%
    11:00 +29°C° 0 mm 2 mps 709 mmHg 46%
    12:00 +31°C° 0 mm 2 mps 709 mmHg 42%
    13:00 +32°C° 0 mm 1 mps 709 mmHg 39%
    14:00 +32°C° 0 mm 2 mps 709 mmHg 40%
    15:00 +31°C° 0 mm 2 mps 708 mmHg 41%
    16:00 +31°C° 0 mm 2 mps 708 mmHg 42%
    17:00 +28°C° 0 mm 3 mps 708 mmHg 54%
    18:00 +25°C° 0 mm 3 mps 708 mmHg 66%
    19:00 +21°C° 0 mm 4 mps 708 mmHg 78%
    20:00 +20°C° 0 mm 3 mps 709 mmHg 81%
    21:00 +19°C° 0 mm 3 mps 709 mmHg 84%
    22:00 +18°C° 0 mm 3 mps 710 mmHg 87%
    23:00 +18°C° 0 mm 3 mps 710 mmHg 88%
    Show more